Regional Weather Roundup
Issued by NWS

Home | Current Version | Previous Version | Text Only | Print | Product List | Glossary On
Versions: 1 2 3 4 5 6 7 8 9 10 11 12 13 14 15 16 17 18 19 20 21 22 23 24 25 26 27 28 29 30 31 32 33 34 35 36 37 38 39 40 41 42 43 44 45 46 47 48 49 50
000
ASUS43 KDMX 282307
RWRIA

WEATHER ROUNDUP FOR IOWA
NATIONAL WEATHER SERVICE DES MOINES IA
500 PM CST WED JAN 28 2015

NOTE: "FAIR" INDICATES FEW OR NO CLOUDS BELOW 12,000 FEET WITH NO
SIGNIFICANT WEATHER AND/OR OBSTRUCTIONS TO VISIBILITY.

* - THESE STATIONS ARE NOT NWS STATIONS...THUS NOT UNDER NWS
QUALITY CONTROL.  THEY ALSO DO NOT REPORT WEATHER SUCH
AS PRECIPITATION OR FOG.

IAZ001>003-012>014-020>022-031>034-043>046-290000-
   NORTHWEST IOWA

CITY           SKY/WX    TMP DP  RH WIND       PRES   REMARKS
CARROLL *      CLEAR     50  41  71 CALM      29.70R
CHEROKEE *     MOCLDY    41  37  87 E6        29.69S FOG
DENISON *      CLEAR     52  37  58 SW5       29.66F
LE MARS *      CLEAR     45  37  76 SW5       29.70R
ORANGE CITY *  CLEAR     45  37  76 W3        29.70R
SHELDON *      CLEAR     36  36 100 E5        29.70R FOG     WCI  32
SIOUX CITY     CLEAR     48  37  65 E7        29.70R
SPENCER        MOCLDY    36  32  85 SE7       29.70F FOG     WCI  30
STORM LAKE *   CLEAR     41  37  87 E7        29.68F
$$

IAZ055>058-069>071-079>083-090>094-290000-
   SOUTHWEST IOWA

CITY           SKY/WX    TMP DP  RH WIND       PRES   REMARKS
ATLANTIC *     CLEAR     57  39  51 W5        29.67R
AUDUBON *      CLEAR     52  39  62 CALM      29.69R
CLARINDA *     CLEAR     66  39  37 SW6       29.67R
COUNCIL BLFS * CLEAR     55  37  50 W6        29.68S
CRESTON *      CLEAR     55  39  54 S7        29.66F
HARLAN  *      CLEAR     54  37  54 W10       29.72R
LAMONI         MOCLDY    58  40  51 SE9       29.67S
RED OAK *      CLEAR     64  39  39 W9        29.67R
SHENANDOAH *   CLEAR     64  39  39 W10       29.67R
$$

IAZ047>049-059>061-072>074-084-290000-
   CENTRAL IOWA

CITY           SKY/WX    TMP DP  RH WIND       PRES   REMARKS
AMES           MOCLDY    44  34  67 SE6       29.72R
ANKENY *       CLEAR     48  37  66 SE3       29.71R
CHARITON *     CLEAR     50  39  66 SE16      29.68F
DES MOINES     CLOUDY    51  37  58 SE5       29.70S
GRINNELL*      CLOUDY    41  36  81 SE16      29.70F
KNOXVILLE *    PTCLDY    46  36  66 SE15G22   29.69S
MARSHALLTOWN   CLOUDY    40  34  79 SE7G17    29.73R
PELLA *        CLOUDY    46  36  66 SE9G23    29.72F
PERRY *          N/A     46  39  76 CALM      29.71R
$$

IAZ004>006-015-016-023>025-035-036-290000-
   NORTH CENTRAL IOWA

CITY           SKY/WX    TMP DP  RH WIND       PRES   REMARKS
ALGONA *       CLEAR     36  34  93 SE10      29.73F FOG     WCI  28
CLARION *      CLEAR     37  37 100 SE10      29.74R WCI  30
ESTHERVILLE    CLOUDY    33  31  92 SE8       29.71R FOG     WCI  26
FORT DODGE *   CLOUDY    39  34  81 NE5       29.74R
MASON CITY     CLOUDY    35  32  88 SE7       29.77R FOG     WCI  29
FOREST CITY *  CLOUDY    34  32  93 SE7       29.74F FOG     WCI  28
IOWA FALLS *     N/A     37  34  87 SE8       29.75R WCI  31
$$

IAZ007>011-017>019-026>030-037>042-050>054-066-290000-
   NORTHEAST IOWA

CITY           SKY/WX    TMP DP  RH WIND       PRES   REMARKS
CEDAR RAPIDS   CLOUDY    36  31  82 SE17      29.77F WCI  26
CHARLES CITY * CLOUDY    34  32  93 SE12G18   29.79R WCI  25
CLINTON *      MOCLDY    34  28  80 SE17      29.91F WCI  23
DECORAH *      CLOUDY    32  27  80 S15G26    29.79R WCI  22
DUBUQUE        MOCLDY    31  25  78 SE21G29   29.84F WCI  18
MONTICELLO *   CLEAR     34  32  93 SE17G24   29.82F WCI  23
OELWEIN *      CLOUDY    34  30  86 SE17G25   29.78S WCI  23
WATERLOO       CLOUDY    36  31  82 SE12      29.76F WCI  28
$$

IAZ064-065-067-068-078-290000-
   EAST CENTRAL IOWA

CITY           SKY/WX    TMP DP  RH WIND       PRES   REMARKS
DAVENPORT      MOCLDY    35  28  75 SE20      29.87F WCI  24
IOWA CITY      CLOUDY    38  32  79 SE14      29.82F WCI  30
MT. PLEASANT * CLOUDY    41  32  70 SE17G24   29.80F
MUSCATINE *    CLEAR     39  32  75 SE12G18   29.85F WCI  32
QUAD CITIES    MOCLDY    36  29  75 SE10      29.87F WCI  28
$$

IAZ062-063-075>077-085>089-095>099-290000-
   SOUTHEAST IOWA

CITY           SKY/WX    TMP DP  RH WIND       PRES   REMARKS
BURLINGTON     MOCLDY    41  32  70 SE13      29.84F
FAIRFIELD *    CLEAR     43  34  70 SE14      29.78F
FORT MADISON * CLEAR     41  34  75 SE14G21   29.83F
KEOKUK *       CLEAR     45  34  65 SE15G24   29.81F
OSKALOOSA *      N/A     41  36  81 SE14      29.74F
CENTERVILLE *  CLEAR     48  37  66 SE15G23   29.72F
OTTUMWA        CLOUDY    44  34  67 SE16      29.73F
WASHINGTON *   CLEAR     41  37  87 SE16G22   29.79F
$$

ABBREVIATIONS USED IN REMARKS
   TC - TEMPERATURES IN CELSIUS
  WCI - WIND CHILL INDEX
   HX - HEAT INDEX
  VSB - VISIBILITY
$$




USA.gov is the U.S. government's official web portal to all federal, state and local government web resources and services.